EW2835 Weather Reports


time (UTC)temp
F
wind
direction
speed
knots
gust
knots
rain 1hr
in
rain 24hr
in
rain mn
in
humidity
%
barometer
mb
20260903150034 72 161 2.6 7.8 0.00 0.00 0.00 64 1013.6
20260903144542 72 184 3.5 16.5 0.00 0.00 0.00 64 1013.8
20260903143043 71 263 0.0 8.7 0.00 0.00 0.00 65 1013.7
20260903141529 71 302 0.0 7.0 0.00 0.00 0.00 65 1013.9
20260903140036 71 162 0.9 4.3 0.00 0.00 0.00 65 1014.0
20260903134529 71 240 1.7 12.2 0.00 0.00 0.00 64 1014.1
20260903133028 73 288 1.7 10.4 0.00 0.00 0.00 60 1014.1
20260903131527 72 239 2.6 10.4 0.00 0.00 0.00 61 1013.9
20260903130024 73 207 1.7 10.4 0.00 0.00 0.00 61 1014.0
20260903124523 74 267 1.7 10.4 0.00 0.00 0.00 60 1014.2
20260903123021 73 316 2.6 13.9 0.00 0.00 0.00 61 1014.2
20260903121528 72 250 0.9 7.8 0.00 0.00 0.00 62 1014.5
20260903120034 71 187 1.7 8.7 0.00 0.00 0.00 64 1014.7
20260903114514 72 280 0.9 11.3 0.00 0.00 0.00 62 1014.9
20260903113018 71 121 2.6 10.4 0.00 0.00 0.00 64 1014.9
20260903111509 70 206 2.6 12.2 0.00 0.00 0.00 64 1015.1
20260903110004 69 198 3.5 12.2 0.00 0.00 0.00 64 1015.2
20260903104503 69 240 3.5 10.4 0.00 0.00 0.00 63 1015.4
20260903103101 68 211 3.5 9.6 0.00 0.00 0.00 65 1015.8
20260903101602 68 176 0.0 11.3 0.00 0.00 0.00 68 1015.9
20260903100055 68 192 0.0 6.1 0.00 0.00 0.00 68 1016.1
20260903094556 68 151 1.7 9.6 0.00 0.00 0.00 69 1016.3
20260903093050 68 318 1.7 9.6 0.00 0.00 0.00 69 1016.4
20260903091550 67 219 0.0 11.3 0.00 0.00 0.00 72 1016.4
20260903090045 66 187 2.6 9.6 0.00 0.00 0.00 71 1016.8
20260903084535 66 157 4.3 9.6 0.00 0.00 0.00 72 1016.7
20260903083033 66 199 3.5 9.6 0.00 0.00 0.00 73 1017.0
20260903081529 65 179 0.9 7.8 0.00 0.00 0.00 76 1017.0
20260903080025 64 211 0.9 5.2 0.00 0.00 0.00 79 1017.1
20260903074523 64 153 0.9 4.3 0.00 0.00 0.00 78 1017.3
20260903073031 63 183 0.9 6.1 0.00 0.00 0.00 80 1017.4
20260903071526 62 165 2.6 7.0 0.00 0.00 0.00 82 1017.5
20260903070014 60 177 0.9 3.5 0.00 0.00 0.00 90 1017.4
20260903064508 57 154 0.0 3.5 0.00 0.00 0.00 95 1017.5
20260903063006 56 180 0.9 3.5 0.00 0.00 0.00 95 1017.7
20260903061501 56 194 0.0 2.6 0.00 0.00 0.00 95 1017.7
20260903060104 55 121 0.0 1.7 0.00 0.00 0.00 95 1017.6
20260903054559 55 196 0.0 0.0 0.00 0.00 0.00 95 1017.8
20260903053054 54 217 0.0 0.9 0.00 0.00 0.00 95 1017.9
20260903051609 54 217 0.0 1.7 0.00 0.00 0.00 95 1018.0
20260903050055 53 320 0.0 0.0 0.00 0.00 0.00 95 1017.9
20260903044553 53 320 0.0 0.0 0.00 0.00 0.00 95 1017.8
20260903043145 53 320 0.0 0.0 0.00 0.00 0.00 95 1017.8
20260903041547 53 320 0.0 0.0 0.00 0.00 0.00 94 1017.7
20260903040047 53 320 0.0 0.0 0.00 0.00 0.00 94 1017.9
20260903034545 53 320 0.0 0.0 0.00 0.00 0.00 94 1017.8
20260903033044 53 320 0.0 0.0 0.00 0.00 0.00 94 1017.8
20260903031541 53 320 0.0 0.0 0.00 0.00 0.00 94 1018.2
20260903030041 53 320 0.0 0.0 0.00 0.00 0.00 94 1018.0
20260903024543 54 320 0.0 0.0 0.00 0.00 0.00 94 1018.0
20260903023039 54 320 0.0 0.0 0.00 0.00 0.00 94 1018.2
20260903021538 54 320 0.0 0.0 0.00 0.00 0.00 94 1018.1
20260903020041 54 320 0.0 0.0 0.00 0.00 0.00 94 1018.2
20260903014637 54 320 0.0 0.0 0.00 0.00 0.00 94 1018.3
20260903013039 54 320 0.0 0.0 0.00 0.00 0.00 94 1018.2
20260903011535 54 320 0.0 0.0 0.00 0.00 0.00 94 1018.3
20260903010040 54 320 0.0 0.0 0.00 0.00 0.00 94 1018.4
20260903004536 54 320 0.0 0.0 0.00 0.00 0.00 94 1018.4
20260903003034 53 320 0.0 0.0 0.00 0.00 0.00 94 1018.4
20260903001532 53 320 0.0 0.0 0.00 0.00 0.00 93 1018.4
20260903000032 53 320 0.0 0.0 0.00 0.00 0.00 93 1018.4
20260902234530 53 320 0.0 0.0 0.00 0.00 0.00 93 1018.4
20260902233029 54 320 0.0 0.0 0.00 0.00 0.00 92 1018.3
20260902231532 54 320 0.0 0.0 0.00 0.00 0.00 92 1018.3
20260902230027 54 320 0.0 0.0 0.00 0.00 0.00 92 1018.3
20260902224538 54 320 0.0 0.0 0.00 0.00 0.00 92 1018.2
20260902223023 54 320 0.0 0.0 0.00 0.00 0.00 91 1018.3
20260902221516 55 320 0.0 0.0 0.00 0.00 0.00 91 1018.5
20260902220010 55 320 0.0 0.0 0.00 0.00 0.00 91 1018.4
20260902214510 55 320 0.0 0.0 0.00 0.00 0.00 90 1018.4
20260902213009 56 320 0.0 0.0 0.00 0.00 0.00 90 1018.4
20260902211508 56 320 0.0 0.0 0.00 0.00 0.00 90 1018.6
20260902210008 56 320 0.0 0.0 0.00 0.00 0.00 89 1018.5
20260902204513 57 320 0.0 0.0 0.00 0.00 0.00 89 1018.3
20260902203008 57 320 0.0 0.0 0.00 0.00 0.00 88 1018.3
20260902201505 57 320 0.0 0.0 0.00 0.00 0.00 87 1018.2
20260902200006 58 320 0.0 0.0 0.00 0.00 0.00 87 1018.2
20260902194509 58 320 0.0 0.0 0.00 0.00 0.00 86 1018.3
20260902193005 59 320 0.0 0.0 0.00 0.00 0.00 85 1018.2
20260902191503 60 320 0.0 0.0 0.00 0.00 0.00 84 1018.2
20260902190004 60 320 0.0 0.0 0.00 0.00 0.00 82 1018.3
20260902184502 61 320 0.0 0.0 0.00 0.00 0.00 81 1018.4
20260902183109 62 320 0.0 0.0 0.00 0.00 0.00 79 1018.3
20260902181501 63 320 0.0 0.0 0.00 0.00 0.00 77 1018.2
20260902180122 64 320 0.0 0.9 0.00 0.00 0.00 75 1018.1
20260902174600 65 320 0.0 0.0 0.00 0.00 0.00 73 1018.0
20260902173100 67 320 0.0 0.0 0.00 0.00 0.00 70 1017.9
20260902171559 67 320 0.0 1.7 0.00 0.00 0.00 69 1018.0
20260902170058 68 308 0.9 2.6 0.00 0.00 0.00 69 1018.0
20260902164559 69 301 0.0 0.9 0.00 0.00 0.00 70 1018.0
20260902163101 69 287 0.9 7.0 0.00 0.00 0.00 63 1018.2
20260902160040 70 192 1.7 4.3 0.00 0.00 0.00 60 1018.0
20260902154539 70 203 0.9 3.5 0.00 0.00 0.00 61 1018.1
20260902153039 70 100 0.0 6.1 0.00 0.00 0.00 61 1018.1
20260902151537 70 142 0.0 2.6 0.00 0.00 0.00 60 1018.2